Location: Zapote
(9.9191°N, 84.0597°W)
Time: 03:51:00
(UTC-06:00)

Envisat - Pass Details

Date: 01 February 2021
Orbit: 764 x 766 km, 98.1° (Epoch: 09 March)

Event Time Altitude Azimuth Distance (km) Brightness Sun altitude
Rises 04:24:41 0° 28° (NNE) 3,218 6.4 -23.1°
Reaches altitude 10° 04:27:13 10° 39° (NE) 2,293 5.7 -22.5°
Maximum altitude 04:31:40 31° 101° (E) 1,308 4.9 -21.4°
Drops below altitude 10° 04:36:06 10° 162° (SSE) 2,293 5.9 -20.4°
Sets 04:38:38 0° 172° (S) 3,219 6.5 -19.8°
